Location: Lannux
(43.6470°N, 0.2208°W)
Time: 04:46:21
(UTC+00:00)

Daily predictions for brighter satellites

Satellite Brightness Start Highest point End
(mag) Time Altitude Azimuth Time Altitude Azimuth Time Altitude Azimuth
Cosmos 1980 Rocket 3.7 03:23:20 32° E 03:23:20 32° E 03:27:22 10° NE
NOSS 3-1 (A) 4.2 03:23:44 68° NE 03:23:50 68° NE 03:32:43 10° SE
ATLAS 3B R/B 3.7 03:27:51 38° N 03:30:12 48° NE 03:37:36 10° ESE
Cosmos 1697 Rocket 4.2 03:42:45 28° NNE 03:42:45 28° NNE 03:45:17 10° NNE
ATLAS 2AS CENTAUR R/B 3.0 03:47:22 60° N 03:47:22 60° N 03:53:12 10° NNE
Lacrosse 4 Rocket 3.7 03:49:00 22° E 03:49:00 22° E 03:51:03 10° ESE
Cosmos 1818 4.2 03:51:21 52° E 03:51:21 52° E 03:55:57 10° NE
USA 59 Rocket 2.6 03:53:36 14° NE 03:53:56 14° NE 03:56:12 10° ENE
Cosmos 2263 Rocket 2.7 04:00:00 48° NNE 04:01:05 56° ENE 04:06:35 10° SE
Cosmos 2082 4.5 04:03:04 32° N 04:05:19 49° ENE 04:10:48 10° SE
Cosmos 2266 Rocket 4.1 04:02:38 10° S 04:09:01 75° E 04:15:25 10° N
Cosmos 2227 Rocket 3.8 04:13:54 21° S 04:13:54 21° S 04:15:48 10° S
Cosmos 2285 Rocket 3.8 04:11:34 77° SW 04:11:34 77° SW 04:17:47 10° SSE
BREEZE-M DEB (TANK) 4.3 04:14:05 21° NE 04:14:05 21° NE 04:16:17 10° ENE
SL-16 R/B 4.4 04:17:23 10° SSE 04:21:50 24° ESE 04:26:19 10° NE
Gbstr 26 Del rocket 3.8 04:22:25 45° SSE 04:22:54 47° SE 04:27:50 10° ENE
USA 229 DEB 4.5 04:21:54 21° NNW 04:27:10 58° NE 04:35:07 10° SE
USA 229 4.5 04:22:01 20° NNW 04:27:17 57° NE 04:35:12 10° SE
Cosmos 1655 Rocket 4.3 04:22:15 10° S 04:28:34 68° E 04:34:52 10° NNE
Cosmos 1484 Rocket 3.7 04:26:01 10° NNE 04:29:22 41° E 04:30:40 28° SSE
IRAS Rocket 4.1 04:29:55 10° NNE 04:35:27 80° WNW 04:40:09 15° SSW
DELTA 2 R/B (1) 3.8 04:35:55 50° SW 04:36:54 58° S 04:42:22 10° ESE
Cosmos 2219 3.1 04:35:43 53° NW 04:36:55 69° WSW 04:42:30 10° SSE
S3M 3.8 04:30:43 10° NNW 04:36:57 73° W 04:43:05 10° S
BREEZE-M DEB (TANK) 3.5 04:39:16 27° ESE 04:39:16 27° ESE 04:40:59 10° E
Cosmos 1417 Rocket 4.4 04:34:40 10° NNW 04:40:39 57° W 04:46:36 10° SSW
H-2A R/B 2.5 04:39:37 10° N 04:43:09 39° NNW 04:43:09 39° NNW
BREEZE-M DEB (TANK) 2.7 04:45:30 66° ENE 04:45:30 66° ENE 04:51:00 10° ESE
Meteor 1-24 Rocket 3.5 04:44:53 10° SSW 04:50:20 63° WNW 04:55:40 10° N
SL-8 R/B 3.5 04:49:43 56° WSW 04:50:42 85° NNW 04:55:28 10° ENE
ARGOS 3.1 04:50:09 10° NNE 04:55:36 88° WNW 05:01:02 10° SSW
Thor Agena Rocket 3.4 04:51:59 10° N 04:57:10 69° WNW 05:02:15 10° SSW
Meteor 2-20 4.4 04:54:02 10° NNW 05:00:00 55° W 05:05:55 10° SSW
Cosmos 1844 Rocket 4.1 04:55:26 10° N 05:00:39 36° NE 05:05:48 10° ESE
Meteor 2-20 Rocket 4.2 04:55:01 10° NNW 05:00:56 76° W 05:06:38 10° S
Cosmos 2322 Rocket 4.1 04:56:27 10° SSE 05:01:21 31° ESE 05:06:15 10° NE
Cosmos 1980 Rocket 2.7 05:05:10 33° W 05:06:16 37° WNW 05:11:27 10° N
Sich 1 Rocket 4.3 05:02:08 10° N 05:06:33 56° E 05:10:59 10° SSE
IRS-1D 4.1 05:05:35 10° N 05:09:55 31° WNW 05:09:55 31° WNW
Cosmos 2369 3.9 05:07:06 23° WSW 05:10:19 48° WNW 05:15:48 10° NNE
USA 281 3.2 05:04:52 10° S 05:11:19 59° WSW 05:17:49 10° NNW
Cosmos 1378 Rocket 3.4 05:09:38 10° S 05:14:04 81° W 05:18:29 10° N
Atlas Centaur 2 3.7 05:15:02 10° SSW 05:15:55 11° SSW 05:16:45 10° S
Cosmos 1674 Rocket 3.5 05:11:46 10° S 05:16:04 84° E 05:20:24 10° N
Cosmos 1025 Rocket 4.5 05:12:45 10° SSE 05:16:41 39° E 05:20:38 10° NNE
ATLAS CENTAUR R/B 3.1 05:18:24 15° NNW 05:18:24 15° NNW 05:19:52 10° N
FengYun 1-2 T 4.2 05:12:58 10° NNE 05:18:38 81° WNW 05:24:16 10° SSW
Meteor 2-5 Rocket 4.1 05:13:30 10° SW 05:18:51 39° WNW 05:24:08 10° N
Cosmos 371 Rocket 3.3 05:16:35 15° NNW 05:20:28 56° WSW 05:25:11 10° S
ARIANE 6 FM1 Upper Stage 2.7 05:16:18 10° SW 05:20:30 83° SE 05:24:46 10° NE
USA 267 4.2 05:14:35 10° E 05:20:33 40° NNE 05:26:09 12° NW
ATLAS 3B R/B 3.2 05:15:09 17° NW 05:21:04 49° WSW 05:28:16 10° S
Okean 2 Rocket 3.1 05:17:43 10° N 05:22:14 88° E 05:26:40 10° S
Cosmos 1992 Rocket 4.0 05:17:46 10° SW 05:22:53 57° WNW 05:28:03 10° NNE
COSMO-SKYMED 1 2.5 05:18:35 10° S 05:22:55 77° WSW 05:27:17 10° NNW
Cosmos 1697 Rocket 4.3 05:24:29 16° NW 05:24:29 16° NW 05:27:49 10° N
Cosmos 1939 Rocket 3.6 05:21:40 10° N 05:24:25 27° WNW 05:24:25 27° WNW
Lacrosse 4 Rocket 2.2 05:24:51 27° W 05:25:29 28° WSW 05:28:59 10° S
Cosmos 1486 Rocket 4.3 05:20:18 10° NNW 05:25:30 68° ENE 05:30:41 10° SSE
Cosmos 332 Rocket 4.5 05:21:16 10° NNW 05:26:05 56° ENE 05:30:51 10° SE
NOAA 12 4.1 05:22:07 10° NNE 05:27:29 89° WNW 05:32:48 10° SSW
Cosmos 1844 4.5 05:23:56 10° NNW 05:29:29 53° ENE 05:35:04 10° SE
NOSS 2-1 (D) 3.6 05:29:47 15° NW 05:33:02 82° NE 05:38:27 10° SE
Cosmos 2098 Rocket 2.7 05:29:57 10° N 05:33:41 68° E 05:36:50 10° SSE
Cosmos 2227 4.2 05:30:07 10° NNW 05:35:48 82° WSW 05:41:30 10° SSE
SJ-11-01 4.2 05:33:04 10° N 05:37:44 75° WNW 05:42:22 10° SSW
CRYOSAT 2 4.5 05:33:06 10° S 05:37:58 83° E 05:42:53 10° N
ATLAS 2AS CENTAUR R/B 4.0 05:34:50 17° WNW 05:38:16 23° NNW 05:43:40 10° NNE
USA 59 Rocket 0.1 05:39:52 12° NW 05:43:31 84° WSW 05:49:06 10° SSE
Cosmos 2263 Rocket 3.3 05:41:46 16° WNW 05:44:32 22° W 05:48:43 10° SSW
Cosmos 1455 Rocket 4.3 05:40:47 10° N 05:44:58 44° ENE 05:49:06 10° SSE
Cosmos 2237 4.2 05:40:17 10° SW 05:45:52 59° WNW 05:51:31 10° NNE
Nadezhda 1 Rocket 4.4 05:39:46 10° N 05:45:55 68° E 05:51:56 10° SSE
CBERS-1 4.4 05:43:04 10° N 05:47:49 40° WNW 05:52:33 10° SW
SL-08 R/B 4.4 05:43:42 10° SSW 05:49:47 74° W 05:55:57 10° N
Cosmos 1869 4.5 05:49:25 10° N 05:53:04 43° ENE 05:56:42 10° SSE
Cosmos 2360 Rocket 2.7 05:47:40 10° SSW 05:53:12 66° ESE 05:58:47 10° NNE
Cosmos 1437 Rocket 3.4 05:50:10 10° SW 05:53:17 27° WNW 05:56:26 10° NNW
Cosmos 2151 Rocket 4.2 05:51:15 10° NNW 05:55:17 35° W 05:59:20 10° SSW
TIMED 4.4 05:52:53 10° NNW 05:57:11 67° WSW 06:01:26 10° S
Cosmos 1484 Rocket 4.3 06:00:48 10° NW 06:02:30 13° WNW 06:04:12 10° W
Cosmos 1606 2.3 06:00:14 10° N 06:03:37 89° W 06:06:59 10° S
Okean 1 Rocket 3.3 05:59:26 10° NNW 06:03:43 48° W 06:08:00 10° SSW
Cosmos 2084 Rocket 3.9 05:59:50 10° WSW 06:03:56 41° NW 06:07:57 10° NNE
BREEZE-M DEB (TANK) 3.5 05:59:19 11° WNW 06:04:17 35° N 06:06:29 10° ENE
Cosmos 1354 Rocket 4.4 05:59:26 10° NNW 06:04:45 71° ENE 06:10:00 10° SSE
SL-16 R/B 2.4 06:00:03 10° SW 06:05:33 51° WNW 06:11:05 10° NNE
Gbstr 26 Del rocket 3.8 06:04:58 10° W 06:09:32 49° NNW 06:15:10 10° NE
NOSS 2-1 (E) 4.1 06:07:19 10° NW 06:11:18 51° SW 06:16:46 10° SSE
TRACE 4.2 06:09:10 10° S 06:12:24 84° WSW 06:15:41 10° NNW
CZ-2D R/B 3.0 06:09:15 10° N 06:12:43 58° WNW 06:16:11 10° SSW
EXPRESS MD2 2.5 06:09:49 10° WSW 06:13:10 56° NNW 06:15:29 10° NE
Cosmos 1763 Rocket 4.5 06:08:30 10° S 06:13:31 53° ESE 06:18:38 10° NNE
ADEOS Rocket 3.4 06:09:31 10° NNE 06:16:47 87° ESE 06:23:15 10° SSW
Geosat FO 4.4 06:14:16 10° SSE 06:17:41 76° WSW 06:20:59 10° NNW
CZ-2D R/B 3.3 06:14:25 10° N 06:18:21 77° WNW 06:22:21 10° SSW
SJ-12 4.1 06:17:08 10° N 06:20:54 44° WNW 06:24:40 10° SW
